Bellaire, MI

6:14 PM EDT on June 27, 2017 (GMT -0400)
Antrim County

Weather History for KACB - October, 2011

Change the Weather History Date:

Wednesday, October 12, 2011

  Actual Average (KCVX) Record (KCVX)
Temperature  
Mean Temperature 61 °F -  
Max Temperature 78 °F 65 °F 77 °F (2013)
Min Temperature 44 °F 44 °F 30 °F (2006)
Degree Days  
Heating Degree Days 4    
Growing Degree Days 11 (Base 50)    
Moisture  
Dew Point 47 °F    
Average Humidity 65    
Maximum Humidity 100    
Minimum Humidity 24    
Precipitation  
Precipitation 0.00 in - - ()
Sea Level Pressure  
Sea Level Pressure 29.87 in    
Wind  
Wind Speed 2 mph (SE)    
Max Wind Speed 10 mph    
Max Gust Speed 16 mph    
Visibility 9 miles    
Events      
Averages and records for this station are not official NWS values.
T = Trace of Precipitation, MM = Missing Value Source: NWS Daily Summary

Daily Weather History Graph

Daily Weather History Graph

Search for Another Location

Airport or City:

Trip Planner

Search our weather history database for the weather conditions in past years. The results will help you decide how hot, cold, wet, or windy it might be!

Date:

Astronomy

Oct. 12, 2011 Rise Set
Actual Time 7:52 AM EDT 7:01 PM EDT
Civil Twilight 7:22 AM EDT 7:31 PM EDT
Nautical Twilight 6:48 AM EDT 8:04 PM EDT
Astronomical Twilight 6:14 AM EDT 8:38 PM EDT
Moon 6:57 PM EDT (10/12) 8:30 AM EDT (10/12)
Length of Visible Light 12h 08m
Length of Day
11h 09m
Full, 100% of the Moon is Illuminated
Oct 12
Full
Oct 19
Last Quarter
Oct 26
New
Nov 2
First Quarter
Nov 10
Full

Hourly Weather History & Observations

Time (EDT) Temp. Dew Point Humidity Pressure Visibility Wind Dir Wind Speed Gust Speed Precip Events Conditions
12:10 AM 50.0 °F 46.4 °F 87% 29.96 in 10.0 mi Calm Calm - N/A   Clear
12:30 AM 50.0 °F 46.4 °F 87% 29.96 in 10.0 mi Calm Calm - N/A   Clear
1:10 AM 48.2 °F 44.6 °F 87% 29.95 in 10.0 mi Calm Calm - N/A   Clear
1:30 AM 50.0 °F 46.4 °F 87% 29.95 in 10.0 mi Calm Calm - N/A   Clear
1:50 AM 50.0 °F 46.4 °F 87% 29.95 in 10.0 mi Calm Calm - N/A   Clear
2:10 AM 50.0 °F 46.4 °F 87% 29.95 in 10.0 mi Calm Calm - N/A   Clear
2:31 AM 50.0 °F 46.4 °F 87% 29.95 in 10.0 mi Calm Calm - N/A   Clear
2:50 AM 50.0 °F 46.4 °F 87% 29.95 in 10.0 mi Calm Calm - N/A   Clear
3:30 AM 50.0 °F 46.4 °F 87% 29.94 in 10.0 mi Calm Calm - N/A   Clear
4:10 AM 50.0 °F 46.4 °F 87% 29.94 in 10.0 mi Calm Calm - N/A   Clear
4:30 AM 50.0 °F 46.4 °F 87% 29.93 in 10.0 mi Calm Calm - N/A   Clear
4:51 AM 48.2 °F 46.4 °F 93% 29.93 in 10.0 mi Calm Calm - N/A   Clear
5:10 AM 46.4 °F 44.6 °F 93% 29.94 in 7.0 mi Calm Calm - N/A   Clear
5:31 AM 48.2 °F 44.6 °F 87% 29.94 in 7.0 mi Calm Calm - N/A   Clear
5:50 AM 46.4 °F 44.6 °F 93% 29.94 in 10.0 mi Calm Calm - N/A   Clear
6:10 AM 44.6 °F 42.8 °F 93% 29.93 in 3.0 mi Calm Calm - N/A   Clear
6:31 AM 46.4 °F 44.6 °F 93% 29.93 in 7.0 mi Calm Calm - N/A   Clear
6:50 AM 46.4 °F 44.6 °F 93% 29.93 in 5.0 mi Calm Calm - N/A   Clear
7:11 AM 46.4 °F 44.6 °F 93% 29.93 in 1.2 mi Calm Calm - N/A   Mist
7:31 AM 44.6 °F 44.6 °F 100% 29.94 in 3.0 mi Calm Calm - N/A   Clear
7:50 AM 46.4 °F 44.6 °F 93% 29.93 in 0.2 mi Calm Calm - N/A   Unknown
8:30 AM 44.6 °F 44.6 °F 100% 29.93 in 4.0 mi Calm Calm - N/A   Clear
8:50 AM 46.4 °F 44.6 °F 93% 29.93 in 10.0 mi Calm Calm - N/A   Clear
9:11 AM 50.0 °F 50.0 °F 100% 29.93 in 10.0 mi Calm Calm - N/A   Clear
9:30 AM 51.8 °F 50.0 °F 94% 29.93 in 10.0 mi Calm Calm - N/A   Clear
9:50 AM 55.4 °F 51.8 °F 88% 29.92 in 10.0 mi Calm Calm - N/A   Clear
10:11 AM 59.0 °F 50.0 °F 72% 29.92 in 10.0 mi Calm Calm - N/A   Clear
10:30 AM 60.8 °F 50.0 °F 68% 29.92 in 10.0 mi Calm Calm - N/A   Clear
10:50 AM 64.4 °F 50.0 °F 59% 29.91 in 10.0 mi Calm Calm - N/A   Clear
11:11 AM 64.4 °F 48.2 °F 56% 29.91 in 10.0 mi Calm Calm - N/A   Clear
11:30 AM 66.2 °F 50.0 °F 56% 29.90 in 10.0 mi Calm Calm - N/A   Clear
11:51 AM 68.0 °F 48.2 °F 49% 29.90 in 10.0 mi Calm Calm - N/A   Clear
12:10 PM 69.8 °F 50.0 °F 49% 29.89 in 10.0 mi Calm Calm - N/A   Clear
12:30 PM 71.6 °F 50.0 °F 46% 29.88 in 10.0 mi Calm Calm - N/A   Clear
12:51 PM 71.6 °F 46.4 °F 41% 29.87 in 10.0 mi Calm Calm - N/A   Clear
1:10 PM 73.4 °F 44.6 °F 36% 29.86 in 10.0 mi Calm Calm - N/A   Clear
1:31 PM 75.2 °F 42.8 °F 31% 29.85 in 10.0 mi ESE 4.6 mph - N/A   Clear
1:51 PM 75.2 °F 42.8 °F 31% 29.84 in 10.0 mi Calm Calm - N/A   Clear
2:10 PM 77.0 °F 42.8 °F 29% 29.83 in 10.0 mi SE 5.8 mph - N/A   Clear
2:31 PM 78.8 °F 41.0 °F 26% 29.82 in 10.0 mi ESE 9.2 mph - N/A   Clear
2:50 PM 78.8 °F 39.2 °F 24% 29.82 in 10.0 mi SE 8.1 mph - N/A   Clear
3:10 PM 77.0 °F 41.0 °F 28% 29.81 in 10.0 mi SSE 6.9 mph - N/A   Clear
3:31 PM 78.8 °F 44.6 °F 30% 29.80 in 10.0 mi SE 9.2 mph - N/A   Scattered Clouds
3:50 PM 77.0 °F 42.8 °F 29% 29.79 in 10.0 mi SE 9.2 mph - N/A   Scattered Clouds
4:10 PM 77.0 °F 44.6 °F 32% 29.79 in 10.0 mi SE 6.9 mph - N/A   Clear
4:31 PM 77.0 °F 44.6 °F 32% 29.79 in 10.0 mi SSE 10.4 mph - N/A   Scattered Clouds
5:31 PM 73.4 °F 50.0 °F 44% 29.79 in 10.0 mi SSE 6.9 mph - N/A   Clear
5:50 PM 71.6 °F 50.0 °F 46% 29.79 in 10.0 mi SSE 9.2 mph 16.1 mph N/A   Clear
6:10 PM 71.6 °F 51.8 °F 50% 29.79 in 10.0 mi SE 10.4 mph 16.1 mph N/A   Clear
6:30 PM 69.8 °F 51.8 °F 53% 29.78 in 10.0 mi South 8.1 mph - N/A   Clear
6:50 PM 69.8 °F 50.0 °F 49% 29.79 in 10.0 mi SSE 6.9 mph - N/A   Clear
7:10 PM 68.0 °F 50.0 °F 52% 29.79 in 10.0 mi SE 4.6 mph - N/A   Clear
7:30 PM 68.0 °F 50.0 °F 52% 29.79 in 10.0 mi SE 6.9 mph - N/A   Clear
7:50 PM 66.2 °F 48.2 °F 52% 29.80 in 10.0 mi ESE 10.4 mph - N/A   Clear
8:11 PM 64.4 °F 48.2 °F 56% 29.79 in 10.0 mi ESE 6.9 mph - N/A   Clear
8:30 PM 64.4 °F 46.4 °F 52% 29.79 in 10.0 mi ESE 6.9 mph - N/A   Clear
8:51 PM 64.4 °F 46.4 °F 52% 29.79 in 10.0 mi SE 6.9 mph - N/A   Clear
9:10 PM 62.6 °F 46.4 °F 55% 29.79 in 10.0 mi ESE 4.6 mph - N/A   Clear
9:30 PM 62.6 °F 46.4 °F 55% 29.79 in 10.0 mi SE 5.8 mph - N/A   Clear
9:51 PM 62.6 °F 48.2 °F 59% 29.79 in 10.0 mi SSE 3.5 mph - N/A   Clear
10:10 PM 60.8 °F 46.4 °F 59% 29.79 in 10.0 mi SE 3.5 mph - N/A   Clear
10:30 PM 60.8 °F 46.4 °F 59% 29.79 in 10.0 mi East 3.5 mph - N/A   Clear
10:51 PM 60.8 °F 46.4 °F 59% 29.78 in 10.0 mi SE 5.8 mph - N/A   Clear
11:10 PM 59.0 °F 46.4 °F 63% 29.78 in 10.0 mi East 3.5 mph - N/A   Clear
11:30 PM 59.0 °F 46.4 °F 63% 29.77 in 10.0 mi East 5.8 mph - N/A   Clear
11:51 PM 59.0 °F 46.4 °F 63% 29.76 in 10.0 mi ESE 3.5 mph - N/A   Clear